Waseca, MN

1:18 AM CST on January 23, 2017 (GMT -0600)
Waseca Municipal

Weather History for KACQ - March, 2013

Change the Weather History Date:

Thursday, March 7, 2013

  Actual Average Record
Temperature  
Mean Temperature 14 °F -  
Max Temperature 30 °F 35 °F 75 °F (1927)
Min Temperature -2 °F 14 °F -20 °F (1920)
Degree Days  
Heating Degree Days 51    
Moisture  
Dew Point 10 °F    
Average Humidity 82    
Maximum Humidity 93    
Minimum Humidity 64    
Precipitation  
Precipitation 0.00 in - - ()
Sea Level Pressure  
Sea Level Pressure 30.32 in    
Wind  
Wind Speed 4 mph (ESE)    
Max Wind Speed 15 mph    
Max Gust Speed 18 mph    
Visibility 7 miles    
Events Fog , Snow    
Averages and records for this station are not official NWS values.
T = Trace of Precipitation, MM = Missing Value Source: NWS Daily Summary

Daily Weather History Graph

Daily Weather History Graph

Search for Another Location

Airport or City:

Trip Planner

Search our weather history database for the weather conditions in past years. The results will help you decide how hot, cold, wet, or windy it might be!

Date:

Astronomy

Mar. 07, 2013 Rise Set
Actual Time 6:40 AM CST 6:10 PM CST
Civil Twilight 6:11 AM CST 6:39 PM CST
Nautical Twilight 5:38 AM CST 7:12 PM CST
Astronomical Twilight 5:04 AM CST 7:46 PM CST
Moon 3:48 AM CST (3/7) 1:52 PM CST (3/7)
Length of Visible Light 12h 28m
Length of Day
11h 30m
Waning Crescent, 20% of the Moon is Illuminated
Mar 7
Waning Crescent
Mar 11
New
Mar 19
First Quarter
Mar 27
Full
Apr 2
Last Quarter

Hourly Weather History & Observations

Time (CST) Temp. Windchill Dew Point Humidity Pressure Visibility Wind Dir Wind Speed Gust Speed Precip Events Conditions
12:15 AM 1.4 °F - -0.4 °F 92% 30.36 in 0.2 mi Calm Calm - N/A Fog Light Freezing Fog
12:36 AM 1.4 °F - -2.2 °F 85% 30.37 in 0.5 mi Calm Calm - N/A Fog Light Freezing Fog
12:56 AM 1.4 °F - -2.2 °F 85% 30.36 in 0.2 mi Calm Calm - N/A Fog Light Freezing Fog
1:15 AM -0.4 °F - -4.0 °F 85% 30.35 in 0.2 mi Calm Calm - N/A Fog Light Freezing Fog
1:35 AM 1.4 °F - -2.2 °F 85% 30.35 in 4.0 mi Calm Calm - N/A   Clear
1:56 AM -0.4 °F - -4.0 °F 85% 30.35 in 10.0 mi Calm Calm - N/A   Clear
2:15 AM -0.4 °F - -5.8 °F 78% 30.35 in 7.0 mi Calm Calm - N/A   Clear
2:35 AM -0.4 °F - -4.0 °F 85% 30.35 in 1.8 mi Calm Calm - N/A   Scattered Clouds
2:56 AM -0.4 °F - -5.8 °F 78% 30.35 in 0.8 mi Calm Calm - N/A   Overcast
3:16 AM -0.4 °F - -4.0 °F 85% 30.35 in 5.0 mi Calm Calm - N/A   Scattered Clouds
3:35 AM -0.4 °F - -5.8 °F 78% 30.35 in 1.8 mi Calm Calm - N/A   Mist
3:56 AM -2.2 °F - -5.8 °F 85% 30.35 in 0.2 mi Calm Calm - N/A Fog Light Freezing Fog
4:16 AM -2.2 °F - -5.8 °F 85% 30.34 in 0.2 mi Calm Calm - N/A Fog Light Freezing Fog
4:36 AM -2.2 °F - -5.8 °F 85% 30.34 in 0.5 mi Calm Calm - N/A Fog Light Freezing Fog
4:56 AM -0.4 °F - -4.0 °F 85% 30.35 in 0.5 mi Calm Calm - N/A Fog Light Freezing Fog
5:16 AM -0.4 °F - -4.0 °F 85% 30.35 in 5.0 mi Calm Calm - N/A   Scattered Clouds
5:36 AM -2.2 °F - -5.8 °F 85% 30.35 in 7.0 mi Calm Calm - N/A   Mostly Cloudy
5:55 AM -0.4 °F - -4.0 °F 85% 30.35 in 3.0 mi Calm Calm - N/A   Mostly Cloudy
6:16 AM 1.4 °F -6.2 °F -2.2 °F 85% 30.35 in 3.0 mi East 3.5 mph - N/A   Mist
6:36 AM 1.4 °F - -2.2 °F 85% 30.35 in 4.0 mi Calm Calm - N/A   Scattered Clouds
6:55 AM -0.4 °F -8.3 °F -4.0 °F 85% 30.36 in 4.0 mi East 3.5 mph - N/A   Clear
7:16 AM 1.4 °F -6.2 °F -2.2 °F 85% 30.36 in 4.0 mi East 3.5 mph - N/A Snow Light Snow
7:36 AM 1.4 °F -8.3 °F -2.2 °F 85% 30.35 in 4.0 mi ESE 4.6 mph - N/A   Clear
7:55 AM 5.0 °F -6.9 °F 1.4 °F 85% 30.34 in 4.0 mi ESE 6.9 mph - N/A   Clear
8:16 AM 6.8 °F -2.0 °F 3.2 °F 85% 30.36 in 4.0 mi ESE 4.6 mph - N/A   Clear
8:35 AM 10.4 °F 2.2 °F 8.6 °F 92% 30.35 in 5.0 mi ESE 4.6 mph - N/A   Clear
8:56 AM 12.2 °F 6.1 °F 8.6 °F 85% 30.36 in 7.0 mi ESE 3.5 mph - N/A   Clear
9:15 AM 12.2 °F 2.9 °F 8.6 °F 85% 30.35 in 7.0 mi ESE 5.8 mph - N/A Snow Light Snow
9:36 AM 14.0 °F 3.9 °F 12.2 °F 93% 30.35 in 7.0 mi ESE 6.9 mph - N/A   Clear
9:55 AM 17.6 °F 8.2 °F 14.0 °F 86% 30.35 in 10.0 mi East 6.9 mph - N/A   Clear
10:16 AM 19.4 °F 10.4 °F 15.8 °F 86% 30.36 in 10.0 mi ESE 6.9 mph - N/A   Clear
10:35 AM 19.4 °F 10.4 °F 17.6 °F 93% 30.35 in 10.0 mi ESE 6.9 mph - N/A   Clear
10:56 AM 19.4 °F 9.5 °F 17.6 °F 93% 30.35 in 10.0 mi ESE 8.1 mph - N/A   Clear
11:16 AM 19.4 °F 9.5 °F 17.6 °F 93% 30.35 in 10.0 mi ESE 8.1 mph - N/A   Clear
11:36 AM 23.0 °F 11.7 °F 19.4 °F 86% 30.35 in 10.0 mi SE 11.5 mph - N/A   Clear
11:56 AM 24.8 °F 14.6 °F 17.6 °F 74% 30.35 in 10.0 mi ESE 10.4 mph - N/A   Clear
12:15 PM 26.6 °F 16.8 °F 17.6 °F 69% 30.35 in 10.0 mi SE 10.4 mph - N/A   Clear
12:36 PM 26.6 °F 18.2 °F 17.6 °F 69% 30.35 in 10.0 mi SE 8.1 mph - N/A   Clear
12:56 PM 26.6 °F 17.5 °F 19.4 °F 74% 30.34 in 10.0 mi SE 9.2 mph - N/A   Clear
1:15 PM 28.4 °F 19.1 °F 19.4 °F 69% 30.33 in 10.0 mi SE 10.4 mph - N/A   Clear
1:36 PM 30.2 °F 21.3 °F 19.4 °F 64% 30.32 in 10.0 mi SE 10.4 mph - N/A   Clear
1:56 PM 30.2 °F 20.2 °F 21.2 °F 69% 30.31 in 10.0 mi SE 12.7 mph - N/A   Clear
2:15 PM 30.2 °F 19.8 °F 21.2 °F 69% 30.31 in 10.0 mi ESE 13.8 mph - N/A   Clear
2:36 PM 30.2 °F 21.3 °F 21.2 °F 69% 30.30 in 10.0 mi SE 10.4 mph - N/A   Clear
2:56 PM 30.2 °F 20.8 °F 21.2 °F 69% 30.30 in 10.0 mi ESE 11.5 mph - N/A   Clear
3:16 PM 30.2 °F 21.3 °F 21.2 °F 69% 30.30 in 10.0 mi ESE 10.4 mph - N/A   Clear
3:36 PM 30.2 °F 19.3 °F 21.2 °F 69% 30.30 in 10.0 mi ESE 15.0 mph - N/A   Clear
3:55 PM 30.2 °F 20.8 °F 21.2 °F 69% 30.30 in 10.0 mi ESE 11.5 mph - N/A   Clear
4:16 PM 26.6 °F 16.8 °F 19.4 °F 74% 30.29 in 10.0 mi ESE 10.4 mph - N/A   Clear
4:36 PM 26.6 °F 15.2 °F 19.4 °F 74% 30.28 in 10.0 mi ESE 13.8 mph - N/A   Clear
4:56 PM 26.6 °F 15.7 °F 19.4 °F 74% 30.28 in 10.0 mi ESE 12.7 mph - N/A   Clear
5:16 PM 24.8 °F 14.0 °F 17.6 °F 74% 30.28 in 10.0 mi ESE 11.5 mph - N/A   Clear
5:36 PM 23.0 °F 11.7 °F 17.6 °F 80% 30.28 in 10.0 mi East 11.5 mph - N/A   Clear
5:55 PM 23.0 °F 11.7 °F 17.6 °F 80% 30.28 in 10.0 mi East 11.5 mph - N/A   Clear
7:35 PM 21.2 °F 8.9 °F 17.6 °F 86% 30.27 in 10.0 mi ESE 12.7 mph - N/A   Clear
7:56 PM 19.4 °F 7.9 °F 14.0 °F 80% 30.27 in 10.0 mi ESE 10.4 mph - N/A   Clear
8:16 PM 21.2 °F 8.3 °F 17.6 °F 86% 30.27 in 10.0 mi ESE 13.8 mph - N/A   Clear
8:35 PM 21.2 °F 8.9 °F 17.6 °F 86% 30.27 in 10.0 mi ESE 12.7 mph - N/A   Clear
8:56 PM 19.4 °F 7.2 °F 15.8 °F 86% 30.27 in 10.0 mi ESE 11.5 mph - N/A   Clear
9:16 PM 21.2 °F 9.5 °F 15.8 °F 80% 30.27 in 10.0 mi SE 11.5 mph - N/A   Clear
9:35 PM 21.2 °F 8.9 °F 17.6 °F 86% 30.28 in 10.0 mi SE 12.7 mph - N/A   Clear
9:55 PM 21.2 °F 8.3 °F 17.6 °F 86% 30.28 in 10.0 mi SE 13.8 mph - N/A   Clear
10:16 PM 21.2 °F 9.5 °F 17.6 °F 86% 30.29 in 10.0 mi SE 11.5 mph - N/A   Clear
10:35 PM 21.2 °F 10.1 °F 17.6 °F 86% 30.29 in 10.0 mi SE 10.4 mph 18.4 mph N/A   Clear
10:56 PM 21.2 °F 8.9 °F 17.6 °F 86% 30.29 in 7.0 mi SE 12.7 mph - N/A   Clear
11:15 PM 21.2 °F 8.9 °F 17.6 °F 86% 30.29 in 7.0 mi SE 12.7 mph - N/A   Clear
11:35 PM 21.2 °F 10.9 °F 17.6 °F 86% 30.29 in 7.0 mi SE 9.2 mph - N/A   Clear
11:56 PM 21.2 °F 10.1 °F 17.6 °F 86% 30.30 in 7.0 mi SE 10.4 mph - N/A   Clear